Year,Month,Day,Hour,Minute,Value (Times are PST for temperature in C)
2004,12,07,00,00,5.40
2004,12,07,00,01,5.40
2004,12,07,00,02,5.40
2004,12,07,00,03,5.40
2004,12,07,00,04,5.30
2004,12,07,00,05,5.30
2004,12,07,00,06,5.30
2004,12,07,00,07,5.30
2004,12,07,00,08,5.30
2004,12,07,00,09,5.30
2004,12,07,00,10,5.30
2004,12,07,00,11,5.30
2004,12,07,00,12,5.30
2004,12,07,00,13,5.30
2004,12,07,00,14,5.30
2004,12,07,00,15,5.30
2004,12,07,00,16,5.30
2004,12,07,00,17,5.30
2004,12,07,00,18,5.30
2004,12,07,00,19,5.30
2004,12,07,00,20,5.30
2004,12,07,00,21,5.30
2004,12,07,00,22,5.30
2004,12,07,00,23,5.30
2004,12,07,00,24,5.30
2004,12,07,00,25,5.30
2004,12,07,00,26,5.30
2004,12,07,00,27,5.30
2004,12,07,00,28,5.30
2004,12,07,00,29,5.30
2004,12,07,01,36,4.90
2004,12,07,01,37,4.80
2004,12,07,01,38,4.80
2004,12,07,01,39,4.80
2004,12,07,01,40,4.80
2004,12,07,01,41,4.80
2004,12,07,01,42,4.80
2004,12,07,01,43,4.80
2004,12,07,01,44,4.80
2004,12,07,01,45,4.80
2004,12,07,01,46,4.80
2004,12,07,01,47,4.80
2004,12,07,01,48,4.80
2004,12,07,01,49,4.80
2004,12,07,01,50,4.80
2004,12,07,01,51,4.80
2004,12,07,01,52,4.80
2004,12,07,02,08,4.50
2004,12,07,02,09,4.50
2004,12,07,02,10,4.50
2004,12,07,02,11,4.50
2004,12,07,02,12,4.50
2004,12,07,02,13,4.50
2004,12,07,02,14,4.50
2004,12,07,02,15,4.50
2004,12,07,02,16,4.50
2004,12,07,02,17,4.50
2004,12,07,02,18,4.50
2004,12,07,02,19,4.50
2004,12,07,02,20,4.50
2004,12,07,02,21,4.50
2004,12,07,02,22,4.50
2004,12,07,02,23,4.50
2004,12,07,02,24,4.50
2004,12,07,02,25,4.50
2004,12,07,02,26,4.50
2004,12,07,02,27,4.50
2004,12,07,02,28,4.50
2004,12,07,02,29,4.50
2004,12,07,02,30,4.50
2004,12,07,02,31,4.50
2004,12,07,02,32,4.50
2004,12,07,02,48,4.30
2004,12,07,02,49,4.30
2004,12,07,02,50,4.30
2004,12,07,02,51,4.30
2004,12,07,02,52,4.30
2004,12,07,02,53,4.20
2004,12,07,02,54,4.20
2004,12,07,02,55,4.20
2004,12,07,02,56,4.20
2004,12,07,02,57,4.20
2004,12,07,02,58,4.20
2004,12,07,02,59,4.10
2004,12,07,03,00,4.10
2004,12,07,03,01,4.10
2004,12,07,03,02,4.10
2004,12,07,03,03,4.10
2004,12,07,03,04,4.00
2004,12,07,03,05,4.00
2004,12,07,03,06,4.00
2004,12,07,03,07,4.00
2004,12,07,03,08,4.00
2004,12,07,03,09,4.00
2004,12,07,03,10,4.00
2004,12,07,03,11,4.00
2004,12,07,03,12,4.00
2004,12,07,03,13,4.00
2004,12,07,03,14,4.00
2004,12,07,03,15,4.00
2004,12,07,03,16,4.00
2004,12,07,03,17,4.00
2004,12,07,03,18,4.00
2004,12,07,03,19,4.00
2004,12,07,03,20,4.00
2004,12,07,03,21,4.00
2004,12,07,03,22,4.00
2004,12,07,03,23,4.00
2004,12,07,03,24,4.00
2004,12,07,03,25,4.00
2004,12,07,03,26,4.00
2004,12,07,03,27,4.00
2004,12,07,03,28,4.00
2004,12,07,03,29,4.00
2004,12,07,03,30,4.00
2004,12,07,03,31,4.00
2004,12,07,03,32,4.00
2004,12,07,03,33,4.00
2004,12,07,03,34,4.00
2004,12,07,03,35,4.00
2004,12,07,03,36,4.00
2004,12,07,03,37,4.00
2004,12,07,03,38,4.00
2004,12,07,03,39,4.00
2004,12,07,03,40,4.00
2004,12,07,03,41,4.00
2004,12,07,03,42,4.00
2004,12,07,03,43,4.00
2004,12,07,03,44,4.00
2004,12,07,03,45,4.00
2004,12,07,03,46,4.00
2004,12,07,03,47,4.00
2004,12,07,03,48,4.00
2004,12,07,03,49,4.00
2004,12,07,07,13,4.30
2004,12,07,07,14,4.30
2004,12,07,07,15,4.30
2004,12,07,07,16,4.40
2004,12,07,07,17,4.40
2004,12,07,07,18,4.40
2004,12,07,07,19,4.40
2004,12,07,07,20,4.50
2004,12,07,07,21,4.50
2004,12,07,07,22,4.50
2004,12,07,07,23,4.40
2004,12,07,07,24,4.40
2004,12,07,07,25,4.40
2004,12,07,07,26,4.50
2004,12,07,07,27,4.50
2004,12,07,07,28,4.50
2004,12,07,07,29,4.50
2004,12,07,07,30,4.50
2004,12,07,07,31,4.50
2004,12,07,07,32,4.60
2004,12,07,07,33,4.60
2004,12,07,07,34,4.60
2004,12,07,07,35,4.60
2004,12,07,07,36,4.60
2004,12,07,07,37,4.60
2004,12,07,07,38,4.60
2004,12,07,07,39,4.60
2004,12,07,07,40,4.60
2004,12,07,07,41,4.60
2004,12,07,07,42,4.60
2004,12,07,07,43,4.60
2004,12,07,07,44,4.60
2004,12,07,07,45,4.60
2004,12,07,07,46,4.60
2004,12,07,07,47,4.60
2004,12,07,07,48,4.50
2004,12,07,07,49,4.50
2004,12,07,07,50,4.50
2004,12,07,07,51,4.50
2004,12,07,07,52,4.50
2004,12,07,07,53,4.50
2004,12,07,07,54,4.50
2004,12,07,07,55,4.50
2004,12,07,07,56,4.50
2004,12,07,07,57,4.40
2004,12,07,07,58,4.40
2004,12,07,07,59,4.40
2004,12,07,08,00,4.40
2004,12,07,08,01,4.40
2004,12,07,08,02,4.40
2004,12,07,08,03,4.40
2004,12,07,08,04,4.40
2004,12,07,08,05,4.40
2004,12,07,08,06,4.40
2004,12,07,08,07,4.40
2004,12,07,08,08,4.50
2004,12,07,08,09,4.50
2004,12,07,08,10,4.50
2004,12,07,08,11,4.50
2004,12,07,08,12,4.50
2004,12,07,08,13,4.50
2004,12,07,08,14,4.50
2004,12,07,08,15,4.50
2004,12,07,08,16,4.50
2004,12,07,08,17,4.50
2004,12,07,08,18,4.50
2004,12,07,08,19,4.50
2004,12,07,08,20,4.50
2004,12,07,08,21,4.50
2004,12,07,08,22,4.50
2004,12,07,08,23,4.50
2004,12,07,08,24,4.50
2004,12,07,08,25,4.50
2004,12,07,08,26,4.40
2004,12,07,08,27,4.40
2004,12,07,08,28,4.40
2004,12,07,08,29,4.40
2004,12,07,08,30,4.40
2004,12,07,08,31,4.40
2004,12,07,08,32,4.50
2004,12,07,08,33,4.50
2004,12,07,08,34,4.60
2004,12,07,08,35,4.60
2004,12,07,08,36,4.60
2004,12,07,08,37,4.60
2004,12,07,08,38,4.60
2004,12,07,08,39,4.60
2004,12,07,08,40,4.60
2004,12,07,08,41,4.80
2004,12,07,08,42,4.80
2004,12,07,08,43,4.80
2004,12,07,08,44,4.90
2004,12,07,08,45,4.90
2004,12,07,08,46,4.90
2004,12,07,08,47,4.90
2004,12,07,08,48,4.90
2004,12,07,08,49,5.10
2004,12,07,08,50,5.10
2004,12,07,08,51,4.90
2004,12,07,08,52,4.90
2004,12,07,08,53,4.90
2004,12,07,08,54,4.80
2004,12,07,08,55,4.90
2004,12,07,08,56,4.90
2004,12,07,08,57,4.90
2004,12,07,08,58,4.90
2004,12,07,08,59,4.90
2004,12,07,09,00,4.90
2004,12,07,09,01,4.90
2004,12,07,09,02,4.90
2004,12,07,09,03,4.90
2004,12,07,09,04,5.00
2004,12,07,09,05,5.10
2004,12,07,09,06,5.10
2004,12,07,09,07,5.10
2004,12,07,09,08,5.10
2004,12,07,09,09,5.10
2004,12,07,09,10,5.20
2004,12,07,09,11,5.10
2004,12,07,09,12,5.10
2004,12,07,09,13,5.10
2004,12,07,09,14,5.10
2004,12,07,09,15,5.10
2004,12,07,09,16,5.10
2004,12,07,09,17,5.10
2004,12,07,09,18,5.10
2004,12,07,09,19,5.10
2004,12,07,09,20,5.10
2004,12,07,09,21,5.10
2004,12,07,09,22,5.20
2004,12,07,09,23,5.20
2004,12,07,09,24,5.10
2004,12,07,09,25,5.10
2004,12,07,09,26,5.10
2004,12,07,09,27,5.10
2004,12,07,09,28,5.10
2004,12,07,09,29,5.10
2004,12,07,09,30,5.10
2004,12,07,09,31,5.10
2004,12,07,09,32,5.10
2004,12,07,09,33,5.10
2004,12,07,09,34,5.10
2004,12,07,09,35,5.10
2004,12,07,09,36,5.10
2004,12,07,09,37,5.10
2004,12,07,09,38,5.10
2004,12,07,09,39,5.10
2004,12,07,09,40,5.10
2004,12,07,09,41,5.10
2004,12,07,09,42,5.10
2004,12,07,09,43,5.10
2004,12,07,09,44,5.10
2004,12,07,09,45,5.10
2004,12,07,09,46,5.10
2004,12,07,09,47,5.10
2004,12,07,09,48,5.10
2004,12,07,09,49,5.10
2004,12,07,09,50,5.10
2004,12,07,09,51,5.10
2004,12,07,09,52,5.10
2004,12,07,09,53,5.00
2004,12,07,09,54,4.90
2004,12,07,09,55,4.90
2004,12,07,09,56,4.90
2004,12,07,09,57,4.90
2004,12,07,09,58,5.00
2004,12,07,09,59,5.10
2004,12,07,10,00,5.10
2004,12,07,10,01,5.10
2004,12,07,10,02,5.10
2004,12,07,10,03,5.10
2004,12,07,10,04,5.10
2004,12,07,10,05,5.10
2004,12,07,10,06,5.20
2004,12,07,10,07,5.20
2004,12,07,10,08,5.30
2004,12,07,10,09,5.30
2004,12,07,10,10,5.30
2004,12,07,10,11,5.40
2004,12,07,10,12,5.40
2004,12,07,10,13,5.50
2004,12,07,10,14,5.60
2004,12,07,10,15,5.60
2004,12,07,10,16,5.60
2004,12,07,10,17,5.70
2004,12,07,10,18,5.70
2004,12,07,10,19,5.70
2004,12,07,10,20,5.70
2004,12,07,10,21,5.70
2004,12,07,10,22,5.70
2004,12,07,10,23,5.70
2004,12,07,10,24,5.70
2004,12,07,10,25,5.80
2004,12,07,10,26,5.70
2004,12,07,10,27,5.70
2004,12,07,10,28,5.80
2004,12,07,10,29,5.80
2004,12,07,10,30,5.80
2004,12,07,10,31,5.80
2004,12,07,10,32,5.80
2004,12,07,10,33,5.80
2004,12,07,10,34,5.80
2004,12,07,10,35,5.80
2004,12,07,10,36,5.80
2004,12,07,10,37,5.80
2004,12,07,10,38,5.80
2004,12,07,10,39,5.80
2004,12,07,10,40,5.80
2004,12,07,10,41,5.80
2004,12,07,10,42,6.00
2004,12,07,10,43,6.00
2004,12,07,10,44,6.00
2004,12,07,10,45,6.00
2004,12,07,10,46,6.00
2004,12,07,10,47,6.00
2004,12,07,10,48,6.00
2004,12,07,10,49,6.00
2004,12,07,10,50,6.00
2004,12,07,10,51,6.00
2004,12,07,10,52,6.00
2004,12,07,10,53,6.00
2004,12,07,10,54,6.00
2004,12,07,10,55,6.00
2004,12,07,10,56,6.00
2004,12,07,10,57,6.00
2004,12,07,10,58,6.00
2004,12,07,10,59,6.00
2004,12,07,11,00,6.00
2004,12,07,11,01,6.00
2004,12,07,11,02,6.00
2004,12,07,11,03,6.00
2004,12,07,11,04,6.00
2004,12,07,11,05,6.10
2004,12,07,11,06,6.10
2004,12,07,11,07,6.00
2004,12,07,11,08,6.00
2004,12,07,11,09,6.00
2004,12,07,11,10,6.10
2004,12,07,11,11,6.10
2004,12,07,11,12,6.10
2004,12,07,11,13,6.10
2004,12,07,11,14,6.10
2004,12,07,11,15,6.10
2004,12,07,11,16,6.10
2004,12,07,11,17,6.20
2004,12,07,11,18,6.20
2004,12,07,11,19,6.20
2004,12,07,11,20,6.20
2004,12,07,11,21,6.10
2004,12,07,11,22,6.20
2004,12,07,11,23,6.20
2004,12,07,11,24,6.20
2004,12,07,11,25,6.20
2004,12,07,11,26,6.20
2004,12,07,11,27,6.20
2004,12,07,11,28,6.20
2004,12,07,11,29,6.20
2004,12,07,11,30,6.20
2004,12,07,11,31,6.20
2004,12,07,11,32,6.20
2004,12,07,11,33,6.20
2004,12,07,11,34,6.20
2004,12,07,11,35,6.20
2004,12,07,11,36,6.20
2004,12,07,11,37,6.20
2004,12,07,11,38,6.30
2004,12,07,11,39,6.20
2004,12,07,11,40,6.20
2004,12,07,11,41,6.20
2004,12,07,11,42,6.30
2004,12,07,11,43,6.30
2004,12,07,11,44,6.30
2004,12,07,11,45,6.30
2004,12,07,11,46,6.30
2004,12,07,11,47,6.30
2004,12,07,11,48,6.30
2004,12,07,11,49,6.30
2004,12,07,11,50,6.30
2004,12,07,11,51,6.30
2004,12,07,11,52,6.30
2004,12,07,11,53,6.30
2004,12,07,11,54,6.30
2004,12,07,11,55,6.30
2004,12,07,11,56,6.20
2004,12,07,11,57,6.20
2004,12,07,11,58,6.20
2004,12,07,11,59,6.20
2004,12,07,12,00,6.30
2004,12,07,12,01,6.30
2004,12,07,12,02,6.30
2004,12,07,12,03,6.30
2004,12,07,12,04,6.30
2004,12,07,12,05,6.30
2004,12,07,12,06,6.30
2004,12,07,12,07,6.30
2004,12,07,12,08,6.30
2004,12,07,12,09,6.40
2004,12,07,12,10,6.40
2004,12,07,12,11,6.40
2004,12,07,12,12,6.40
2004,12,07,12,13,6.40
2004,12,07,12,14,6.40
2004,12,07,12,15,6.40
2004,12,07,12,16,6.40
2004,12,07,12,17,6.40
2004,12,07,12,18,6.40
2004,12,07,12,19,6.40
2004,12,07,12,20,6.40
2004,12,07,12,21,6.40
2004,12,07,12,22,6.40
2004,12,07,12,23,6.40
2004,12,07,12,24,6.40
2004,12,07,12,25,6.40
2004,12,07,12,26,6.40
2004,12,07,12,27,6.40
2004,12,07,12,28,6.40
2004,12,07,12,29,6.40
2004,12,07,12,30,6.40
2004,12,07,12,31,6.40
2004,12,07,12,32,6.40
2004,12,07,12,33,6.40
2004,12,07,12,34,6.40
2004,12,07,12,35,6.40
2004,12,07,12,36,6.40
2004,12,07,12,37,6.40
2004,12,07,12,38,6.40
2004,12,07,12,39,6.40
2004,12,07,12,40,6.40
2004,12,07,12,41,6.40
2004,12,07,12,42,6.40
2004,12,07,12,43,6.40
2004,12,07,12,44,6.40
2004,12,07,12,45,6.40
2004,12,07,12,46,6.40
2004,12,07,12,47,6.40
2004,12,07,12,48,6.40
2004,12,07,12,49,6.40
2004,12,07,12,50,6.40
2004,12,07,12,51,6.40
2004,12,07,12,52,6.50
2004,12,07,12,53,6.60
2004,12,07,12,54,6.60
2004,12,07,12,55,6.60
2004,12,07,12,56,6.60
2004,12,07,12,57,6.60
2004,12,07,12,58,6.60
2004,12,07,12,59,6.60
2004,12,07,13,00,6.60
2004,12,07,13,01,6.50
2004,12,07,13,02,6.40
2004,12,07,13,03,6.50
2004,12,07,13,04,6.60
2004,12,07,13,05,6.60
2004,12,07,13,06,6.60
2004,12,07,13,07,6.60
2004,12,07,13,08,6.50
2004,12,07,13,09,6.50
2004,12,07,13,10,6.40
2004,12,07,13,11,6.50
2004,12,07,13,12,6.40
2004,12,07,13,13,6.50
2004,12,07,13,14,6.50
2004,12,07,13,15,6.40
2004,12,07,13,16,6.40
2004,12,07,13,17,6.40
2004,12,07,13,18,6.40
2004,12,07,13,19,6.40
2004,12,07,13,20,6.40
2004,12,07,13,21,6.40
2004,12,07,13,22,6.40
2004,12,07,13,23,6.40
2004,12,07,13,24,6.40
2004,12,07,13,25,6.50
2004,12,07,13,26,6.50
2004,12,07,13,27,6.40
2004,12,07,13,28,6.50
2004,12,07,13,29,6.60
2004,12,07,13,30,6.60
2004,12,07,13,31,6.60
2004,12,07,13,32,6.60
2004,12,07,13,33,6.60
2004,12,07,13,34,6.60
2004,12,07,13,35,6.60
2004,12,07,13,36,6.60
2004,12,07,13,37,6.70
2004,12,07,13,38,6.70
2004,12,07,13,39,6.80
2004,12,07,13,40,6.80
2004,12,07,13,41,6.80
2004,12,07,13,42,6.90
2004,12,07,13,43,6.90
2004,12,07,13,44,6.90
2004,12,07,13,45,7.00
2004,12,07,13,46,7.00
2004,12,07,13,47,7.00
2004,12,07,13,48,7.00
2004,12,07,13,49,7.00
2004,12,07,13,50,7.00
2004,12,07,13,51,7.00
2004,12,07,13,52,7.00
2004,12,07,13,53,7.00
2004,12,07,13,54,7.00
2004,12,07,13,55,7.00
2004,12,07,13,56,7.00
2004,12,07,13,57,7.00
2004,12,07,13,58,7.00
2004,12,07,13,59,6.90
2004,12,07,14,00,6.90
2004,12,07,14,01,6.90
2004,12,07,14,02,6.90
2004,12,07,14,03,6.90
2004,12,07,14,04,6.90
2004,12,07,14,05,6.90
2004,12,07,14,06,6.90
2004,12,07,14,07,6.90
2004,12,07,14,08,6.90
2004,12,07,14,09,6.90
2004,12,07,14,10,6.90
2004,12,07,14,11,6.90
2004,12,07,14,12,6.90
2004,12,07,14,13,6.90
2004,12,07,14,14,7.00
2004,12,07,14,15,7.00
2004,12,07,14,16,7.00
2004,12,07,14,17,7.00
2004,12,07,14,18,7.00
2004,12,07,14,19,7.00
2004,12,07,14,20,7.00
2004,12,07,14,21,7.00
2004,12,07,14,22,7.00
2004,12,07,14,23,7.00
2004,12,07,14,24,7.00
2004,12,07,14,25,7.10
2004,12,07,14,26,7.10
2004,12,07,14,27,7.10
2004,12,07,14,28,7.10
2004,12,07,14,29,7.10
2004,12,07,14,30,7.00
2004,12,07,14,31,7.00
2004,12,07,14,32,7.00
2004,12,07,14,33,7.00
2004,12,07,14,34,7.00
2004,12,07,14,35,7.00
2004,12,07,14,36,7.00
2004,12,07,14,37,7.00
2004,12,07,14,38,7.00
2004,12,07,14,39,7.00
2004,12,07,14,40,7.00
2004,12,07,14,41,7.00
2004,12,07,14,42,7.00
2004,12,07,14,43,7.00
2004,12,07,14,44,6.90
2004,12,07,14,45,6.90
2004,12,07,14,46,6.90
2004,12,07,14,47,6.90
2004,12,07,14,48,6.90
2004,12,07,14,49,6.90
2004,12,07,14,50,6.90
2004,12,07,14,51,6.90
2004,12,07,14,52,6.90
2004,12,07,14,53,6.90
2004,12,07,14,54,6.90
2004,12,07,14,55,6.90
2004,12,07,14,56,6.90
2004,12,07,14,57,6.90
2004,12,07,14,58,6.90
2004,12,07,14,59,6.90
2004,12,07,15,00,6.90
2004,12,07,15,01,6.90
2004,12,07,15,02,6.90
2004,12,07,15,03,6.90
2004,12,07,15,04,6.90
2004,12,07,15,05,6.90
2004,12,07,15,06,6.90
2004,12,07,15,07,6.80
2004,12,07,15,08,6.80
2004,12,07,15,09,6.80
2004,12,07,15,10,6.80
2004,12,07,15,11,6.80
2004,12,07,15,12,6.80
2004,12,07,15,13,6.80
2004,12,07,15,14,6.80
2004,12,07,15,15,6.80
2004,12,07,15,16,6.80
2004,12,07,15,17,6.80
2004,12,07,15,18,6.80
2004,12,07,15,19,6.80
2004,12,07,15,20,6.80
2004,12,07,15,21,6.80
2004,12,07,15,22,6.90
2004,12,07,15,23,6.90
2004,12,07,15,24,6.90
2004,12,07,15,25,6.90
2004,12,07,15,26,6.90
2004,12,07,15,27,6.90
2004,12,07,15,28,6.90
2004,12,07,15,29,6.90
2004,12,07,15,30,6.90
2004,12,07,15,31,6.90
2004,12,07,15,32,6.90
2004,12,07,15,33,6.90
2004,12,07,15,34,6.90
2004,12,07,15,35,6.90
2004,12,07,15,36,6.90
2004,12,07,15,37,6.90
2004,12,07,15,38,6.90
2004,12,07,15,39,6.90
2004,12,07,15,40,6.90
2004,12,07,15,41,6.90
2004,12,07,15,42,6.90
2004,12,07,15,43,6.90
2004,12,07,15,44,6.90
2004,12,07,15,45,6.90
2004,12,07,15,46,6.90
2004,12,07,15,47,6.90
2004,12,07,15,48,6.90
2004,12,07,15,49,6.90
2004,12,07,15,50,6.90
2004,12,07,15,51,6.90
2004,12,07,15,52,6.90
2004,12,07,15,53,6.90
2004,12,07,15,54,6.90
2004,12,07,15,55,6.90
2004,12,07,15,56,6.90
2004,12,07,15,57,6.90
2004,12,07,15,58,6.90
2004,12,07,15,59,6.90
2004,12,07,16,00,7.00
2004,12,07,16,01,6.90
2004,12,07,16,02,6.90
2004,12,07,16,03,6.90
2004,12,07,16,04,6.90
2004,12,07,16,05,6.90
2004,12,07,16,06,6.90
2004,12,07,16,07,6.90
2004,12,07,16,08,6.90
2004,12,07,16,09,6.90
2004,12,07,16,10,6.90
2004,12,07,16,11,6.90
2004,12,07,16,12,6.90
2004,12,07,16,13,6.90
2004,12,07,16,14,6.90
2004,12,07,16,15,6.90
2004,12,07,16,16,6.90
2004,12,07,16,17,6.90
2004,12,07,16,18,6.90
2004,12,07,16,19,6.90
2004,12,07,16,20,6.90
2004,12,07,16,21,6.90
2004,12,07,16,22,6.90
2004,12,07,16,23,6.90
2004,12,07,16,24,6.80
2004,12,07,16,25,6.80
2004,12,07,16,26,6.80
2004,12,07,16,27,6.80
2004,12,07,16,28,6.80
2004,12,07,16,29,6.80
2004,12,07,16,30,6.80
2004,12,07,16,31,6.80
2004,12,07,16,32,6.90
2004,12,07,16,33,6.90
2004,12,07,16,34,6.90
2004,12,07,16,35,6.90
2004,12,07,16,36,6.90
2004,12,07,16,37,6.90
2004,12,07,16,38,7.00
2004,12,07,16,39,7.00
2004,12,07,16,40,7.00
2004,12,07,16,41,7.10
2004,12,07,16,42,7.10
2004,12,07,16,43,7.10
2004,12,07,16,44,7.10
2004,12,07,16,45,7.10
2004,12,07,16,46,7.10
2004,12,07,16,47,7.20
2004,12,07,16,48,7.20
2004,12,07,16,49,7.20
2004,12,07,16,50,7.20
2004,12,07,16,51,7.30
2004,12,07,16,52,7.30
2004,12,07,16,53,7.30
2004,12,07,16,54,7.30
2004,12,07,16,55,7.30
2004,12,07,16,56,7.30
2004,12,07,16,57,7.30
2004,12,07,16,58,7.30
2004,12,07,16,59,7.30
2004,12,07,17,00,7.30
2004,12,07,17,01,7.30
2004,12,07,17,02,7.30
2004,12,07,17,03,7.30
2004,12,07,17,04,7.40
2004,12,07,17,05,7.40
2004,12,07,17,06,7.40
2004,12,07,17,07,7.40
2004,12,07,17,08,7.40
2004,12,07,17,09,7.40
2004,12,07,17,10,7.40
2004,12,07,17,11,7.40
2004,12,07,17,12,7.40
2004,12,07,17,13,7.40
2004,12,07,17,14,7.40
2004,12,07,17,15,7.40
2004,12,07,17,16,7.40
2004,12,07,17,17,7.40
2004,12,07,17,18,7.40
2004,12,07,17,19,7.40
2004,12,07,17,20,7.40
2004,12,07,17,21,7.40
2004,12,07,17,22,7.40
2004,12,07,17,23,7.40
2004,12,07,17,24,7.40
2004,12,07,17,25,7.40
2004,12,07,17,26,7.40
2004,12,07,17,27,7.40
2004,12,07,17,28,7.40
2004,12,07,17,29,7.40
2004,12,07,17,30,7.40
2004,12,07,17,31,7.40
2004,12,07,17,32,7.40
2004,12,07,17,33,7.40
2004,12,07,17,34,7.40
2004,12,07,17,35,7.40
2004,12,07,17,36,7.40
2004,12,07,17,37,7.40
2004,12,07,17,38,7.40
2004,12,07,17,39,7.40
2004,12,07,17,40,7.40
2004,12,07,17,41,7.40
2004,12,07,17,42,7.40
2004,12,07,17,43,7.40
2004,12,07,17,44,7.40
2004,12,07,17,45,7.40
2004,12,07,17,46,7.30
2004,12,07,17,47,7.30
2004,12,07,17,48,7.30
2004,12,07,17,49,7.30
2004,12,07,17,50,7.30
2004,12,07,17,51,7.30
2004,12,07,17,52,7.30
2004,12,07,17,53,7.30
2004,12,07,17,54,7.30
2004,12,07,17,55,7.20
2004,12,07,17,56,7.10
2004,12,07,17,57,7.10
2004,12,07,17,58,7.10
2004,12,07,17,59,7.10
2004,12,07,18,00,7.00
2004,12,07,18,01,7.00
2004,12,07,18,02,7.00
2004,12,07,18,03,6.90
2004,12,07,18,04,6.90
2004,12,07,18,05,6.80
2004,12,07,18,06,6.80
2004,12,07,18,07,6.80
2004,12,07,18,08,6.80
2004,12,07,18,09,6.80
2004,12,07,18,10,6.80
2004,12,07,18,11,6.80
2004,12,07,18,12,6.80
2004,12,07,18,13,6.80
2004,12,07,18,14,6.80
2004,12,07,18,15,6.80
2004,12,07,18,16,6.70
2004,12,07,18,17,6.70
2004,12,07,18,18,6.70
2004,12,07,18,19,6.70
2004,12,07,18,20,6.70
2004,12,07,18,21,6.70
2004,12,07,18,22,6.70
2004,12,07,18,23,6.70
2004,12,07,18,24,6.70
2004,12,07,18,25,6.70
2004,12,07,18,26,6.70
2004,12,07,18,27,6.70
2004,12,07,18,28,6.70
2004,12,07,18,29,6.70
2004,12,07,18,30,6.70
2004,12,07,18,31,6.70
2004,12,07,18,32,6.70
2004,12,07,18,33,6.70
2004,12,07,18,34,6.70
2004,12,07,18,35,6.70
2004,12,07,18,36,6.70
2004,12,07,18,37,6.70
2004,12,07,18,38,6.70
2004,12,07,18,39,6.70
2004,12,07,18,40,6.60
2004,12,07,18,41,6.60
2004,12,07,18,42,6.60
2004,12,07,18,43,6.60
2004,12,07,18,44,6.60
2004,12,07,18,45,6.60
2004,12,07,18,46,6.70
2004,12,07,18,47,6.70
2004,12,07,18,48,6.70
2004,12,07,18,49,6.70
2004,12,07,18,50,6.70
2004,12,07,18,51,6.70
2004,12,07,18,52,6.70
2004,12,07,18,53,6.70
2004,12,07,18,54,6.70
2004,12,07,18,55,6.70
2004,12,07,18,56,6.70
2004,12,07,18,57,6.70
2004,12,07,18,58,6.70
2004,12,07,18,59,6.70
2004,12,07,19,00,6.60
2004,12,07,19,01,6.60
2004,12,07,19,02,6.60
2004,12,07,19,03,6.60
2004,12,07,19,04,6.60
2004,12,07,19,05,6.60
2004,12,07,19,06,6.60
2004,12,07,19,07,6.60
2004,12,07,19,08,6.60
2004,12,07,19,09,6.60
2004,12,07,19,10,6.60
2004,12,07,19,11,6.60
2004,12,07,19,12,6.60
2004,12,07,19,13,6.60
2004,12,07,19,14,6.60
2004,12,07,19,15,6.60
2004,12,07,19,16,6.60
2004,12,07,19,17,6.60
2004,12,07,19,18,6.60
2004,12,07,19,19,6.60
2004,12,07,19,20,6.70
2004,12,07,19,21,6.70
2004,12,07,19,22,6.70
2004,12,07,19,23,6.70
2004,12,07,19,24,6.80
2004,12,07,19,25,6.80
2004,12,07,19,26,6.80
2004,12,07,19,27,6.80
2004,12,07,19,28,6.80
2004,12,07,19,29,6.80
2004,12,07,19,30,6.80
2004,12,07,19,31,6.80
2004,12,07,19,32,6.80
2004,12,07,19,33,6.80
2004,12,07,19,34,6.80
2004,12,07,19,35,6.80
2004,12,07,19,36,6.80
2004,12,07,19,37,6.80
2004,12,07,19,38,6.90
2004,12,07,19,39,6.90
2004,12,07,19,40,6.90
2004,12,07,19,41,6.90
2004,12,07,19,42,6.90
2004,12,07,19,43,6.90
2004,12,07,19,44,6.90
2004,12,07,19,45,6.90
2004,12,07,19,46,6.90
2004,12,07,19,47,6.90
2004,12,07,19,48,6.90
2004,12,07,19,49,7.00
2004,12,07,19,50,7.00
2004,12,07,19,51,7.00
2004,12,07,19,52,7.00
2004,12,07,19,53,7.00
2004,12,07,19,54,7.00
2004,12,07,19,55,7.00
2004,12,07,19,56,7.00
2004,12,07,19,57,7.00
2004,12,07,19,58,7.00
2004,12,07,19,59,7.00
2004,12,07,20,00,7.00
2004,12,07,20,01,7.00
2004,12,07,20,02,6.90
2004,12,07,20,03,6.90
2004,12,07,20,04,6.90
2004,12,07,20,05,6.90
2004,12,07,20,06,6.90
2004,12,07,20,07,6.90
2004,12,07,20,08,6.90
2004,12,07,20,09,6.90
2004,12,07,20,10,6.90
2004,12,07,20,11,6.90
2004,12,07,20,12,6.90
2004,12,07,20,13,6.90
2004,12,07,20,14,6.90
2004,12,07,20,15,6.90
2004,12,07,20,16,6.90
2004,12,07,20,17,6.90
2004,12,07,20,18,6.90
2004,12,07,20,19,6.90
2004,12,07,20,20,6.90
2004,12,07,20,21,6.90
2004,12,07,20,22,6.90
2004,12,07,20,23,6.90
2004,12,07,20,24,6.90
2004,12,07,20,25,6.90
2004,12,07,20,26,6.90
2004,12,07,20,27,6.90
2004,12,07,20,28,6.90
2004,12,07,20,29,7.00
2004,12,07,20,30,7.00
2004,12,07,20,31,7.00
2004,12,07,20,32,7.00
2004,12,07,20,33,7.00
2004,12,07,20,34,7.00
2004,12,07,20,35,7.00
2004,12,07,20,36,7.00
2004,12,07,20,37,7.00
2004,12,07,20,38,7.00
2004,12,07,20,39,7.00
2004,12,07,20,40,7.00
2004,12,07,20,41,7.00
2004,12,07,20,42,7.00
2004,12,07,20,43,7.00
2004,12,07,20,44,7.00
2004,12,07,20,45,7.00
2004,12,07,20,46,7.00
2004,12,07,20,47,7.00
2004,12,07,20,48,7.00
2004,12,07,20,49,7.10
2004,12,07,20,50,7.10
2004,12,07,20,51,7.10
2004,12,07,20,52,7.10
2004,12,07,20,53,7.20
2004,12,07,20,54,7.20
2004,12,07,20,55,7.20
2004,12,07,20,56,7.30
2004,12,07,20,57,7.30
2004,12,07,20,58,7.30
2004,12,07,20,59,7.30
2004,12,07,21,00,7.30
2004,12,07,21,01,7.30
2004,12,07,21,02,7.30
2004,12,07,21,03,7.30
2004,12,07,21,04,7.30
2004,12,07,21,05,7.30
2004,12,07,21,06,7.30
2004,12,07,21,07,7.30
2004,12,07,21,08,7.30
2004,12,07,21,09,7.30
2004,12,07,21,10,7.30
2004,12,07,21,11,7.30
2004,12,07,21,12,7.30
2004,12,07,21,13,7.30
2004,12,07,21,14,7.30
2004,12,07,21,15,7.30
2004,12,07,21,16,7.20
2004,12,07,21,17,7.20
2004,12,07,21,18,7.20
2004,12,07,21,19,7.20
2004,12,07,21,20,7.20
2004,12,07,21,21,7.10
2004,12,07,21,22,7.10
2004,12,07,21,23,7.10
2004,12,07,21,24,7.10
2004,12,07,21,25,7.10
2004,12,07,21,26,7.10
2004,12,07,21,27,7.10
2004,12,07,21,28,7.20
2004,12,07,21,29,7.20
2004,12,07,21,30,7.20
2004,12,07,21,31,7.20
2004,12,07,21,32,7.20
2004,12,07,21,33,7.20
2004,12,07,21,34,7.30
2004,12,07,21,35,7.30
2004,12,07,21,36,7.30
2004,12,07,21,37,7.30
2004,12,07,21,38,7.30
2004,12,07,21,39,7.30
2004,12,07,21,40,7.30
2004,12,07,21,41,7.30
2004,12,07,21,42,7.30
2004,12,07,21,43,7.30
2004,12,07,21,44,7.30
2004,12,07,21,45,7.30
2004,12,07,21,46,7.40
2004,12,07,21,47,7.40
2004,12,07,21,48,7.40
2004,12,07,21,49,7.40
2004,12,07,21,50,7.40
2004,12,07,21,51,7.40
2004,12,07,21,52,7.40
2004,12,07,21,53,7.30
2004,12,07,21,54,7.30
2004,12,07,21,55,7.30
2004,12,07,21,56,7.40
2004,12,07,21,57,7.40
2004,12,07,21,58,7.30
2004,12,07,21,59,7.30
2004,12,07,22,00,7.30
2004,12,07,22,01,7.40
2004,12,07,22,02,7.40
2004,12,07,22,03,7.40
2004,12,07,22,04,7.40
2004,12,07,22,05,7.40
2004,12,07,22,06,7.40
2004,12,07,22,07,7.40
2004,12,07,22,08,7.40
2004,12,07,22,09,7.40
2004,12,07,22,10,7.40
2004,12,07,22,11,7.40
2004,12,07,22,12,7.40
2004,12,07,22,13,7.40
2004,12,07,22,14,7.40
2004,12,07,22,15,7.40
2004,12,07,22,16,7.40
2004,12,07,22,17,7.40
2004,12,07,22,18,7.40
2004,12,07,22,19,7.40
2004,12,07,22,20,7.40
2004,12,07,22,21,7.40
2004,12,07,22,22,7.40
2004,12,07,22,23,7.40
2004,12,07,22,24,7.40
2004,12,07,22,25,7.40
2004,12,07,22,26,7.40
2004,12,07,22,27,7.40
2004,12,07,22,28,7.40
2004,12,07,22,29,7.40
2004,12,07,22,30,7.40
2004,12,07,22,31,7.40
2004,12,07,22,32,7.40
2004,12,07,22,33,7.40
2004,12,07,22,34,7.30
2004,12,07,22,35,7.30
2004,12,07,22,36,7.30
2004,12,07,22,37,7.30
2004,12,07,22,38,7.30
2004,12,07,22,39,7.30
2004,12,07,22,40,7.30
2004,12,07,22,41,7.30
2004,12,07,22,42,7.30
2004,12,07,22,43,7.30
2004,12,07,22,44,7.30
2004,12,07,22,45,7.30
2004,12,07,22,46,7.30
2004,12,07,22,47,7.30
2004,12,07,22,48,7.30
2004,12,07,22,49,7.30
2004,12,07,22,50,7.30
2004,12,07,22,51,7.30
2004,12,07,22,52,7.30
2004,12,07,22,53,7.30
2004,12,07,22,54,7.30
2004,12,07,22,55,7.40
2004,12,07,22,56,7.40
2004,12,07,22,57,7.40
2004,12,07,22,58,7.40
2004,12,07,22,59,7.40
2004,12,07,23,00,7.40
2004,12,07,23,01,7.50
2004,12,07,23,02,7.50
2004,12,07,23,03,7.50
2004,12,07,23,04,7.50
2004,12,07,23,05,7.50